Time,TemperatureF,DewpointF,PressureIn,WindDirection,WindDirectionDegrees,WindSpeedMPH,WindSpeedGustMPH,Humidity,HourlyPrecipIn,Conditions,Clouds,dailyrainin,SoftwareType,DateUTC
2013-03-25 00:00:00,41.9,40.6,29.60,NW,315,4.0,4.0,95,0.00,,---,0.00,VWS V14.00,2013-03-25 04:00:00,
2013-03-25 00:05:00,41.9,40.6,29.60,NNW,330,2.0,4.0,95,0.00,,---,0.00,VWS V14.00,2013-03-25 04:05:00,
2013-03-25 00:10:00,41.9,40.6,29.60,NW,325,3.0,4.0,95,0.00,,---,0.00,VWS V14.00,2013-03-25 04:10:00,
2013-03-25 00:15:00,41.8,40.5,29.61,NNW,335,1.0,5.0,95,0.00,,---,0.00,VWS V14.00,2013-03-25 04:15:00,
2013-03-25 00:20:00,41.8,40.5,29.61,NNW,335,0.0,5.0,95,0.00,,---,0.00,VWS V14.00,2013-03-25 04:20:00,
2013-03-25 00:25:00,41.7,40.4,29.61,NNW,335,1.0,5.0,95,0.00,,---,0.00,VWS V14.00,2013-03-25 04:25:00,
2013-03-25 00:30:00,41.7,40.4,29.60,NNW,335,0.0,2.0,95,0.00,,---,0.00,VWS V14.00,2013-03-25 04:30:00,
2013-03-25 00:35:00,41.7,40.4,29.60,NNW,335,0.0,2.0,95,0.00,,---,0.00,VWS V14.00,2013-03-25 04:35:00,
2013-03-25 00:40:00,41.8,40.5,29.60,NNW,335,2.0,2.0,95,0.00,,---,0.00,VWS V14.00,2013-03-25 04:40:00,
2013-03-25 00:45:00,41.7,40.4,29.59,NNW,340,2.0,3.0,95,0.00,,---,0.00,VWS V14.00,2013-03-25 04:45:00,
2013-03-25 00:50:00,41.7,40.4,29.58,North,6,2.0,3.0,95,0.00,,---,0.00,VWS V14.00,2013-03-25 04:50:00,
2013-03-25 00:55:00,41.8,40.5,29.58,NNE,21,2.0,4.0,95,0.00,,---,0.00,VWS V14.00,2013-03-25 04:55:00,
2013-03-25 01:00:00,41.8,40.5,29.57,NNE,29,3.0,7.0,95,0.00,,---,0.00,VWS V14.00,2013-03-25 05:00:00,
2013-03-25 01:05:00,41.7,40.4,29.57,NNE,29,3.0,7.0,95,0.00,,---,0.00,VWS V14.00,2013-03-25 05:05:00,
2013-03-25 01:10:00,41.7,40.4,29.56,NNE,32,1.0,7.0,95,0.00,,---,0.00,VWS V14.00,2013-03-25 05:10:00,
2013-03-25 01:15:00,41.7,40.7,29.55,NE,35,3.0,7.0,96,0.00,,---,0.00,VWS V14.00,2013-03-25 05:15:00,
2013-03-25 01:20:00,41.6,40.3,29.54,NNE,26,6.0,9.0,95,0.00,,---,0.00,VWS V14.00,2013-03-25 05:20:00,
2013-03-25 01:25:00,41.6,40.3,29.53,ENE,66,6.0,10.0,95,0.00,,---,0.00,VWS V14.00,2013-03-25 05:25:00,
2013-03-25 01:30:00,41.5,40.2,29.53,ENE,64,5.0,6.0,95,0.00,,---,0.00,VWS V14.00,2013-03-25 05:30:00,
2013-03-25 01:35:00,41.5,40.2,29.53,NE,41,3.0,8.0,95,0.00,,---,0.00,VWS V14.00,2013-03-25 05:35:00,
2013-03-25 01:40:00,41.5,40.5,29.52,NNE,25,5.0,8.0,96,0.00,,---,0.00,VWS V14.00,2013-03-25 05:40:00,
2013-03-25 01:45:00,41.6,40.5,29.52,NNE,32,4.0,8.0,96,0.00,,---,0.00,VWS V14.00,2013-03-25 05:45:00,
2013-03-25 01:50:00,41.6,40.5,29.52,NE,38,7.0,9.0,96,0.00,,---,0.00,VWS V14.00,2013-03-25 05:50:00,
2013-03-25 01:55:00,41.6,40.5,29.52,NE,34,3.0,9.0,96,0.00,,---,0.00,VWS V14.00,2013-03-25 05:55:00,
2013-03-25 02:00:00,41.6,40.5,29.53,NE,34,0.0,2.0,96,0.00,,---,0.00,VWS V14.00,2013-03-25 06:00:00,
2013-03-25 02:05:00,41.8,40.8,29.54,NE,34,0.0,2.0,96,0.00,,---,0.00,VWS V14.00,2013-03-25 06:05:00,
2013-03-25 02:10:00,41.8,40.8,29.56,WNW,293,3.0,4.0,96,0.00,,---,0.00,VWS V14.00,2013-03-25 06:10:00,
2013-03-25 02:15:00,41.9,40.8,29.56,West,272,4.0,5.0,96,0.00,,---,0.00,VWS V14.00,2013-03-25 06:15:00,
2013-03-25 02:20:00,41.9,40.8,29.57,West,272,4.0,5.0,96,0.00,,---,0.00,VWS V14.00,2013-03-25 06:20:00,
2013-03-25 02:25:00,41.9,40.8,29.56,WNW,291,4.0,5.0,96,0.00,,---,0.00,VWS V14.00,2013-03-25 06:25:00,
2013-03-25 02:30:00,41.9,40.8,29.57,West,269,5.0,6.0,96,0.00,,---,0.00,VWS V14.00,2013-03-25 06:30:00,
2013-03-25 02:35:00,41.9,40.8,29.58,WSW,247,5.0,6.0,96,0.00,,---,0.00,VWS V14.00,2013-03-25 06:35:00,
2013-03-25 02:40:00,41.9,40.8,29.58,WSW,251,3.0,7.0,96,0.00,,---,0.00,VWS V14.00,2013-03-25 06:40:00,
2013-03-25 02:45:00,41.8,40.8,29.57,SW,235,3.0,7.0,96,0.00,,---,0.00,VWS V14.00,2013-03-25 06:45:00,
2013-03-25 02:50:00,41.8,40.8,29.56,West,276,3.0,7.0,96,0.00,,---,0.00,VWS V14.00,2013-03-25 06:50:00,
2013-03-25 02:55:00,41.8,40.8,29.56,West,276,3.0,7.0,96,0.00,,---,0.00,VWS V14.00,2013-03-25 06:55:00,
2013-03-25 03:00:00,41.8,40.8,29.57,SW,224,5.0,5.0,96,0.00,,---,0.00,VWS V14.00,2013-03-25 07:00:00,
2013-03-25 03:05:00,41.9,40.8,29.58,SW,224,4.0,7.0,96,0.00,,---,0.00,VWS V14.00,2013-03-25 07:05:00,
2013-03-25 03:10:00,41.8,40.8,29.57,SW,227,3.0,7.0,96,0.00,,---,0.00,VWS V14.00,2013-03-25 07:10:00,
2013-03-25 03:15:00,41.8,40.8,29.56,SW,229,3.0,7.0,96,0.00,,---,0.00,VWS V14.00,2013-03-25 07:15:00,
2013-03-25 03:20:00,41.7,40.7,29.56,WSW,241,5.0,7.0,96,0.00,,---,0.00,VWS V14.00,2013-03-25 07:20:00,
2013-03-25 03:25:00,41.7,40.7,29.55,WSW,238,2.0,7.0,96,0.00,,---,0.00,VWS V14.00,2013-03-25 07:25:00,
2013-03-25 03:30:00,41.7,40.7,29.56,SW,234,5.0,7.0,96,0.00,,---,0.00,VWS V14.00,2013-03-25 07:30:00,
2013-03-25 03:35:00,41.7,40.7,29.56,WSW,238,6.0,7.0,96,0.00,,---,0.00,VWS V14.00,2013-03-25 07:35:00,
2013-03-25 03:40:00,41.6,40.5,29.56,WSW,237,5.0,10.0,96,0.00,,---,0.00,VWS V14.00,2013-03-25 07:40:00,
2013-03-25 03:45:00,41.6,40.5,29.56,WSW,240,3.0,10.0,96,0.00,,---,0.00,VWS V14.00,2013-03-25 07:45:00,
2013-03-25 03:50:00,41.6,40.5,29.56,WSW,256,7.0,10.0,96,0.00,,---,0.00,VWS V14.00,2013-03-25 07:50:00,
2013-03-25 03:55:00,41.5,40.5,29.56,SW,232,4.0,10.0,96,0.00,,---,0.00,VWS V14.00,2013-03-25 07:55:00,
2013-03-25 04:00:00,41.6,40.5,29.56,WSW,251,7.0,10.0,96,0.00,,---,0.00,VWS V14.00,2013-03-25 08:00:00,
2013-03-25 04:05:00,41.6,40.5,29.57,West,260,10.0,10.0,96,0.00,,---,0.00,VWS V14.00,2013-03-25 08:05:00,
2013-03-25 04:10:00,41.6,40.5,29.57,WSW,256,12.0,12.0,96,0.00,,---,0.00,VWS V14.00,2013-03-25 08:10:00,
2013-03-25 04:15:00,41.6,40.5,29.57,WSW,244,5.0,13.0,96,0.00,,---,0.00,VWS V14.00,2013-03-25 08:15:00,
2013-03-25 04:20:00,41.6,40.5,29.57,SW,229,7.0,13.0,96,0.00,,---,0.00,VWS V14.00,2013-03-25 08:20:00,
2013-03-25 04:25:00,41.7,40.7,29.57,WSW,249,6.0,13.0,96,0.00,,---,0.00,VWS V14.00,2013-03-25 08:25:00,
2013-03-25 04:30:00,41.7,40.7,29.56,SW,236,5.0,9.0,96,0.00,,---,0.00,VWS V14.00,2013-03-25 08:30:00,
2013-03-25 04:35:00,41.8,40.8,29.57,WSW,237,5.0,9.0,96,0.00,,---,0.00,VWS V14.00,2013-03-25 08:35:00,
2013-03-25 04:40:00,41.8,40.8,29.57,SW,236,7.0,9.0,96,0.00,,---,0.00,VWS V14.00,2013-03-25 08:40:00,
2013-03-25 04:45:00,41.8,40.8,29.57,WSW,243,5.0,10.0,96,0.00,,---,0.00,VWS V14.00,2013-03-25 08:45:00,
2013-03-25 04:50:00,41.8,40.8,29.57,West,261,8.0,11.0,96,0.00,,---,0.00,VWS V14.00,2013-03-25 08:50:00,
2013-03-25 04:55:00,41.9,40.8,29.57,SW,220,6.0,11.0,96,0.00,,---,0.00,VWS V14.00,2013-03-25 08:55:00,
2013-03-25 05:00:00,41.8,40.8,29.57,WSW,239,6.0,9.0,96,0.00,,---,0.00,VWS V14.00,2013-03-25 09:00:00,
2013-03-25 05:05:00,41.9,40.8,29.57,WSW,249,7.0,11.0,96,0.00,,---,0.00,VWS V14.00,2013-03-25 09:05:00,
2013-03-25 05:10:00,41.9,40.8,29.58,West,262,9.0,12.0,96,0.00,,---,0.00,VWS V14.00,2013-03-25 09:10:00,
2013-03-25 05:15:00,41.8,40.8,29.59,WSW,241,9.0,14.0,96,0.00,,---,0.00,VWS V14.00,2013-03-25 09:15:00,
2013-03-25 05:20:00,41.8,40.8,29.59,WSW,237,6.0,14.0,96,0.00,,---,0.00,VWS V14.00,2013-03-25 09:20:00,
2013-03-25 05:25:00,41.8,40.8,29.58,West,268,6.0,14.0,96,0.00,,---,0.00,VWS V14.00,2013-03-25 09:25:00,
2013-03-25 05:30:00,41.8,40.8,29.58,SW,233,7.0,8.0,96,0.00,,---,0.00,VWS V14.00,2013-03-25 09:30:00,
2013-03-25 05:35:00,41.8,40.8,29.57,WSW,244,7.0,10.0,96,0.00,,---,0.00,VWS V14.00,2013-03-25 09:35:00,
2013-03-25 05:40:00,41.8,40.8,29.58,SW,221,5.0,10.0,96,0.00,,---,0.00,VWS V14.00,2013-03-25 09:40:00,
2013-03-25 05:45:00,41.8,40.8,29.58,SW,223,5.0,10.0,96,0.00,,---,0.00,VWS V14.00,2013-03-25 09:45:00,
2013-03-25 05:50:00,41.9,40.8,29.58,WSW,245,6.0,10.0,96,0.00,,---,0.00,VWS V14.00,2013-03-25 09:50:00,
2013-03-25 05:55:00,42.0,40.9,29.59,WSW,254,5.0,10.0,96,0.00,,---,0.00,VWS V14.00,2013-03-25 09:55:00,
2013-03-25 06:00:00,42.0,40.9,29.59,WSW,252,7.0,10.0,96,0.00,,---,0.00,VWS V14.00,2013-03-25 10:00:00,
2013-03-25 06:05:00,42.0,40.9,29.59,WSW,254,7.0,12.0,96,0.00,,---,0.00,VWS V14.00,2013-03-25 10:05:00,
2013-03-25 06:10:00,42.0,40.9,29.59,WSW,256,8.0,12.0,96,0.00,,---,0.00,VWS V14.00,2013-03-25 10:10:00,
2013-03-25 06:15:00,42.0,40.9,29.59,WSW,256,8.0,12.0,96,0.00,,---,0.00,VWS V14.00,2013-03-25 10:15:00,
2013-03-25 06:20:00,42.1,41.0,29.59,West,263,8.0,17.0,96,0.00,,---,0.00,VWS V14.00,2013-03-25 10:20:00,
2013-03-25 06:25:00,42.0,40.9,29.59,WSW,239,7.0,17.0,96,0.00,,---,0.00,VWS V14.00,2013-03-25 10:25:00,
2013-03-25 06:30:00,42.1,41.0,29.59,WSW,238,8.0,10.0,96,0.00,,---,0.00,VWS V14.00,2013-03-25 10:30:00,
2013-03-25 06:35:00,42.1,41.0,29.59,WSW,254,12.0,12.0,96,0.00,,---,0.00,VWS V14.00,2013-03-25 10:35:00,
2013-03-25 06:40:00,42.1,41.0,29.60,WSW,254,7.0,12.0,96,0.00,,---,0.00,VWS V14.00,2013-03-25 10:40:00,
2013-03-25 06:45:00,42.3,41.2,29.60,WSW,256,9.0,12.0,96,0.00,,---,0.00,VWS V14.00,2013-03-25 10:45:00,
2013-03-25 06:50:00,42.3,41.2,29.60,WNW,285,9.0,14.0,96,0.00,,---,0.00,VWS V14.00,2013-03-25 10:50:00,
2013-03-25 06:55:00,42.4,41.3,29.60,WSW,243,9.0,14.0,96,0.00,,---,0.00,VWS V14.00,2013-03-25 10:55:00,
2013-03-25 07:00:00,42.4,41.1,29.60,WSW,245,6.0,13.0,95,0.00,,---,0.00,VWS V14.00,2013-03-25 11:00:00,
2013-03-25 07:05:00,42.5,41.2,29.60,SW,230,9.0,15.0,95,0.00,,---,0.00,VWS V14.00,2013-03-25 11:05:00,
2013-03-25 07:10:00,42.6,41.3,29.59,SW,235,9.0,15.0,95,0.00,,---,0.00,VWS V14.00,2013-03-25 11:10:00,
2013-03-25 07:15:00,42.8,41.5,29.59,WSW,241,10.0,15.0,95,0.00,,---,0.00,VWS V14.00,2013-03-25 11:15:00,
2013-03-25 07:20:00,43.0,41.7,29.59,WSW,240,12.0,16.0,95,0.00,,---,0.00,VWS V14.00,2013-03-25 11:20:00,
2013-03-25 07:25:00,43.1,41.5,29.59,WSW,247,13.0,16.0,94,0.00,,---,0.00,VWS V14.00,2013-03-25 11:25:00,
2013-03-25 07:30:00,43.2,41.6,29.59,WSW,256,9.0,13.0,94,0.00,,---,0.00,VWS V14.00,2013-03-25 11:30:00,
2013-03-25 07:35:00,43.3,41.7,29.59,WSW,250,7.0,13.0,94,0.00,,---,0.00,VWS V14.00,2013-03-25 11:35:00,
2013-03-25 07:40:00,43.4,41.8,29.59,SW,236,14.0,16.0,94,0.00,,---,0.00,VWS V14.00,2013-03-25 11:40:00,
2013-03-25 07:45:00,43.5,41.6,29.59,WSW,241,13.0,17.0,93,0.00,,---,0.00,VWS V14.00,2013-03-25 11:45:00,
2013-03-25 07:50:00,43.6,41.7,29.59,SW,235,13.0,17.0,93,0.00,,---,0.00,VWS V14.00,2013-03-25 11:50:00,